Location: Unspecified
(0.0000°N, 0.0000°E)
Time: 11:07:55
(UTC+00:00)

Transit 4A - Pass Details

Date: 26 November 2019
Orbit: 870 x 974 km, 66.8° (Epoch: 14 December)

Event Time Altitude Azimuth Distance (km) Brightness Sun altitude
Rises 19:31:55 0° 224° (SW) 3,667 12.1 -24.3°
Reaches altitude 10° 19:34:58 10° 237° (WSW) 2,715 11.4 -25.0°
Maximum altitude 19:39:59 25° 289° (WNW) 1,858 9.9 -26.1°
Drops below altitude 10° 19:44:56 10° 342° (NNW) 2,678 10.2 -27.3°
Enters shadow 19:45:56 - 348° (NNW) 2,969 10.4 -27.5°
